{"data":{"norad_id":68012,"intl_designator":"2026-039AC","name":"STARLINK-36936","alt_names":[],"object_type":"PAYLOAD","status":"ACTIVE","operator":null,"country":"US","launch_date":"2026-02-27","launch_site_code":"AFETR","launch_vehicle":null,"mission":null,"orbit_class":"UNKNOWN","rcs_meters":null,"size_class":null,"mass_kg":null,"dimensions":null,"purposes":["comms"],"wikipedia_slug":null,"has_3d_model":false,"image_url":null,"decayed_at":null,"tle_current":{"epoch":"2026-05-24T20:11:42.957888Z","epoch_age_seconds":84801,"freshness":"FRESH","line1":"1 68012U 26039AC  26144.84146942  .00015967  00000+0  58828-3 0  9993","line2":"2 68012  43.0017 338.5289 0001512 274.2050  85.8629 15.27592133 13359","mean_motion":15.27592133,"eccentricity":0.0001512,"inclination_deg":43.0017,"raan_deg":338.5289,"arg_perigee_deg":274.205,"mean_anomaly_deg":85.8629,"bstar":0.00058828,"rev_number":1335,"period_min":94.265999993861,"perigee_km":481.97535986872,"apogee_km":484.05017155787,"semimajor_km":6861.1497657133,"source":"CELESTRAK","updated_at":"2026-05-25T13:38:21.803337Z"}}}